Temperature
15 15 15 16 16 16 18 20 21 22 22 22 21 22 22 21 21 18 16 16 16 16 15 15 16 16 15 15 15 15 15 15 15 15 15 15 15 15 15 15 15 15 15 15 15 15 15 15 15
15 15 15 16 16 17 18 20 20 21 21 20 21 21 21 20 19 17 16 16 15 15 15 15 15 15 15 15 15 15 15 15 15 15 15 15 15 15 15 15 15 15 15 15 15 15 15 15 15
14 15 16 16 17 17 19 20 20 20 20 20 20 20 20 19 18 16 16 15 15 15 15 15 15 15 15 15 15 15 14 14 15 15 14 14 14 14 15 14 14 14 14 14 15 15 15 15 15
14 15 16 16 16 18 19 19 19 19 19 20 19 19 19 18 17 16 16 15 15 15 15 15 15 15 15 15 15 15 14 14 14 14 14 14 14 14 14 14 14 14 14 14 14 14 15 15 15
14 15 15 15 16 18 19 19 19 18 19 19 19 18 18 17 16 16 15 15 15 14 14 14 14 14 14 14 15 14 14 14 14 14 14 14 14 14 14 14 14 14 14 14 14 14 14 14 14
15 16 15 15 17 18 18 19 18 18 18 18 18 18 17 16 16 15 15 14 14 14 14 14 14 14 14 14 14 14 14 14 14 14 14 14 14 14 14 14 14 14 14 14 14 14 14 14 14
14 14 15 16 16 17 18 18 18 17 17 17 17 17 16 15 15 15 14 14 14 14 14 14 14 14 14 14 14 14 14 14 14 13 14 14 14 14 14 14 14 14 14 14 14 14 14 14 14
14 14 15 16 16 17 17 17 16 16 16 16 16 16 15 15 14 14 14 13 13 13 13 13 13 13 13 13 13 13 13 13 13 13 13 13 14 14 14 14 14 14 14 14 14 14 14 14 14
13 13 14 15 16 16 16 16 16 15 15 15 15 15 15 14 14 13 13 13 13 13 13 13 13 13 13 13 13 13 13 13 13 13 13 13 13 13 13 14 14 14 14 14 14 14 14 14 13
13 13 14 16 15 15 15 15 15 15 14 14 14 14 14 14 13 13 13 13 13 13 13 12 13 13 13 13 13 13 13 13 13 13 13 13 13 13 13 13 13 13 13 13 13 13 13 13 13
14 13 14 15 15 14 14 14 14 14 13 14 14 14 14 13 13 12 12 12 12 12 12 12 12 12 12 13 12 12 12 12 12 12 12 12 12 13 13 13 13 13 13 13 13 13 13 13 13
14 14 14 14 14 13 13 13 13 14 14 14 14 13 13 13 12 12 12 12 12 12 12 12 12 12 12 12 12 12 12 12 12 12 12 12 12 12 12 13 13 13 13 13 13 13 12 12 12
13 13 14 14 13 13 13 13 13 13 13 13 13 13 13 13 12 12 12 12 12 12 12 12 12 12 12 12 12 12 12 12 12 12 12 12 12 12 12 12 12 12 12 12 12 12 12 12 12
14 13 13 13 13 13 12 12 12 13 13 13 13 13 13 12 12 12 12 11 11 12 12 12 12 12 12 12 12 11 11 12 12 12 12 12 12 12 12 12 12 12 12 12 12 12 12 12 12
13 12 13 13 13 13 12 12 12 13 13 13 13 13 12 12 12 12 12 11 11 11 11 11 11 11 11 11 11 11 11 11 11 11 11 11 11 12 12 12 12 12 12 12 12 12 12 12 11
12 12 12 13 13 13 12 11 13 14 13 13 13 13 12 12 12 12 11 11 11 11 11 11 11 11 11 11 11 11 11 11 11 11 11 11 11 11 11 12 12 12 12 11 11 11 11 11 11
12 12 12 13 14 13 12 11 13 14 13 13 13 13 12 12 12 11 11 11 11 11 11 10 10 10 11 11 11 11 11 11 11 11 11 11 11 11 11 11 11 11 11 11 11 11 11 11 11
12 12 13 13 14 13 12 12 13 13 13 13 13 13 12 12 11 11 11 11 11 10 10 10 10 10 10 10 10 10 10 11 11 11 11 11 11 11 11 11 11 11 11 11 11 11 11 11 11
12 12 12 13 13 12 12 12 12 13 13 12 13 12 12 12 11 11 11 10 10 10 10 10 10 10 10 10 10 10 10 10 10 10 10 11 11 11 11 11 11 11 11 11 10 10 10 10 10
12 12 12 13 13 13 11 11 12 13 12 12 12 12 12 12 11 11 10 10 10 10 10 10 10 9 9 9 10 10 10 10 10 10 10 10 10 10 10 10 10 10 10 10 10 10 10 10 10
12 11 11 12 12 12 11 11 12 13 13 13 13 12 12 12 11 10 10 10 10 9 9 9 9 9 9 9 9 9 9 9 9 9 9 10 10 10 10 10 10 10 10 10 10 10 10 9 9
11 12 12 11 10 9 11 9 11 12 12 12 12 12 12 12 11 10 10 9 9 9 9 9 9 9 9 9 9 9 9 9 9 9 9 9 9 10 10 10 9 9 9 9 9 9 9 9 9
11 11 11 11 10 9 10 9 10 12 12 12 12 12 12 11 11 10 10 9 9 9 9 9 9 8 8 8 8 9 9 9 9 9 9 9 9 9 9 9 9 9 9 9 9 9 9 9 9
11 11 10 10 9 8 10 10 10 11 12 12 12 12 12 11 11 10 10 9 9 9 9 9 8 8 8 8 8 8 8 8 8 8 8 8 8 9 8 9 9 9 9 9 8 8 8 8 8
11 9 9 9 9 9 12 11 10 12 13 12 12 12 11 11 11 10 10 9 9 9 8 8 8 8 8 7 7 8 8 8 8 8 8 8 8 8 8 8 8 8 8 8 8 8 8 8 8
10 10 9 9 10 10 11 10 11 12 13 13 13 12 11 11 10 10 10 9 9 9 8 8 8 8 8 7 7 7 7 7 8 8 8 8 8 8 8 8 8 8 8 8 8 8 8 8 8
10 10 11 9 9 9 10 12 12 12 11 11 11 11 11 11 10 10 9 9 9 8 8 8 8 8 7 7 7 7 7 7 7 7 7 7 7 7 7 7 7 7 7 7 7 7 7 7 7
10 10 9 8 8 9 11 11 10 10 10 10 10 10 10 10 10 9 9 9 8 8 8 8 8 8 7 7 7 7 7 7 7 7 7 7 7 7 7 7 7 7 7 7 7 7 7 7 7
9 9 9 9 9 9 9 10 12 11 11 10 10 10 10 9 9 9 9 8 8 8 8 7 7 7 7 7 7 7 7 7 7 7 6 6 7 7 7 7 6 6 6 6 6 6 6 6 6
10 10 9 8 8 9 8 9 12 11 10 10 10 10 9 9 9 8 8 8 7 7 7 7 7 7 6 6 6 6 6 6 6 6 6 6 6 6 6 6 6 6 6 6 6 6 6 6 6
Wind_Speed
14 12 6 2 3 4 7 6 6 4 2 4 6 5 5 4 4 6 4 6 7 8 11 11 10 8 8 8 7 6 7 7 7 8 8 8 8 7 7 7 7 7 7 7 7 7 8 8 8
12 7 4 3 4 6 6 7 7 4 1 4 4 4 4 3 6 7 5 6 6 8 10 9 10 8 8 8 7 7 6 7 7 7 7 8 8 7 7 7 7 7 7 7 7 7 7 7 7
9 6 3 3 4 6 4 1 1 3 3 2 2 2 3 2 5 5 5 5 6 7 9 10 10 8 8 8 7 7 6 7 7 7 7 8 8 8 7 7 7 7 7 7 6 6 6 6 6
4 3 3 3 7 6 4 2 4 3 2 1 0 1 1 5 4 5 6 4 5 6 8 10 10 8 7 7 8 8 7 7 7 7 7 7 8 7 7 8 7 7 6 6 6 6 6 6 6
3 3 3 5 8 7 4 3 3 2 2 2 1 2 1 5 8 7 5 4 4 5 6 10 10 8 7 8 8 8 7 7 7 7 7 7 7 7 7 8 7 7 6 6 6 6 6 6 5
3 3 3 6 7 5 3 2 2 3 3 3 3 4 1 4 6 5 3 3 3 5 5 8 9 9 7 8 9 8 8 8 8 8 8 7 7 7 7 7 7 7 6 6 6 5 5 5 4
3 3 5 6 6 5 2 1 1 3 4 3 3 4 1 4 5 4 3 2 2 4 5 6 7 8 7 7 9 9 9 9 8 8 8 7 7 7 7 7 7 6 6 6 5 5 5 4 3
3 3 4 5 6 4 2 2 2 4 4 4 3 3 1 2 5 3 3 2 1 2 5 5 5 6 6 6 8 9 9 9 9 8 8 8 8 7 7 6 6 6 6 6 5 5 4 4 2
3 3 4 4 4 3 2 2 2 2 4 5 5 5 1 2 3 2 1 1 1 1 3 4 4 4 5 5 7 8 9 9 9 9 10 9 7 7 6 6 6 6 6 5 5 4 4 4 2
3 3 4 3 3 4 4 4 4 3 6 7 6 5 2 1 1 2 2 2 2 2 2 4 4 4 4 4 6 7 7 8 7 8 8 6 6 7 7 7 6 6 6 5 4 5 5 4 3
3 4 4 5 4 4 5 6 5 7 8 8 7 4 3 3 3 4 4 4 4 3 2 3 4 3 3 2 3 4 5 6 6 7 7 6 7 8 8 6 5 5 5 4 4 4 4 4 3
5 6 6 6 5 4 6 7 8 10 10 6 5 4 4 5 5 5 5 5 4 3 3 2 4 4 3 3 2 3 3 3 3 6 7 5 4 4 5 5 5 4 4 4 4 3 2 3 3
8 7 7 7 6 6 8 10 10 12 10 7 7 7 8 7 6 6 5 5 5 4 3 3 3 4 4 3 2 2 2 2 4 5 5 6 3 3 3 3 4 3 3 3 2 2 2 3 3
5 6 7 7 7 7 9 11 10 11 8 9 9 9 8 7 7 5 5 4 4 5 5 4 4 4 4 4 3 2 2 3 4 4 3 5 4 3 2 2 2 2 2 2 2 3 3 2 2
6 8 9 8 9 5 5 10 11 11 8 10 10 9 8 7 7 6 5 5 5 5 4 4 4 4 5 4 4 3 3 3 3 4 4 4 5 4 3 2 2 2 2 1 1 3 3 2 2
7 7 7 6 6 5 4 10 7 6 7 9 8 7 6 7 7 5 4 4 4 4 4 4 4 4 4 4 4 3 2 3 3 4 5 5 5 5 3 2 1 3 3 2 1 2 2 2 2
6 6 7 5 6 4 6 10 8 6 7 9 8 7 7 6 6 5 4 4 4 5 5 5 4 4 4 4 3 3 3 3 3 4 5 5 5 5 3 2 2 3 2 1 1 2 2 2 2
5 6 8 6 4 5 8 12 10 7 8 9 8 8 7 6 5 5 5 5 4 5 5 6 6 4 4 4 3 2 3 2 3 4 4 5 5 5 4 3 2 3 2 1 1 2 2 2 2
9 10 12 9 4 6 10 13 12 8 8 8 7 7 7 7 5 5 5 5 5 5 5 5 6 5 4 3 3 3 3 2 3 3 5 6 5 5 4 3 2 2 2 2 2 2 2 2 2
11 12 12 8 4 6 10 14 12 9 8 7 8 8 7 6 6 6 6 5 5 5 6 5 5 5 5 3 3 3 3 2 2 3 4 5 5 5 4 3 3 2 2 2 2 2 2 1 2
12 10 9 9 9 7 9 10 7 6 6 6 6 7 7 7 7 7 7 6 5 6 6 6 5 5 5 4 3 3 3 2 2 2 3 3 4 4 4 4 3 2 2 3 2 2 2 2 1
10 5 7 8 7 5 3 6 7 5 5 5 6 6 7 7 7 7 7 6 6 6 6 6 6 6 5 5 4 6 4 4 3 3 3 2 3 4 4 3 3 2 2 3 2 2 2 3 2
7 4 7 8 7 7 6 6 8 4 5 5 5 6 6 7 7 7 7 7 6 6 7 6 6 6 6 5 5 5 4 3 3 3 4 3 2 3 4 4 3 2 2 2 2 2 2 1 2
5 5 9 7 4 6 8 7 6 4 5 4 4 5 6 6 6 7 7 6 6 6 6 6 7 6 6 6 5 5 6 5 5 4 4 3 2 2 3 3 3 2 2 2 2 2 2 2 2
6 3 2 2 4 7 5 5 7 3 3 3 4 4 5 6 6 7 7 7 7 7 7 7 7 7 6 6 6 6 6 6 7 6 5 5 3 2 3 2 3 2 2 2 2 2 2 2 2
7 6 4 4 4 4 2 6 5 2 1 0 1 3 5 6 6 6 7 7 7 8 8 8 8 7 7 7 5 5 5 5 5 6 5 5 4 4 4 3 2 2 2 2 2 2 2 1 1
5 6 4 3 5 5 6 5 3 1 1 0 0 1 3 4 5 6 6 6 7 7 8 8 8 7 8 8 6 6 6 5 5 6 5 5 4 4 5 4 3 3 3 2 2 2 2 2 2
5 3 3 4 4 6 6 6 4 2 2 1 1 1 1 2 3 4 5 5 6 6 6 7 7 7 7 7 6 5 6 6 6 6 5 5 5 5 6 5 4 4 3 3 3 2 2 2 2
6 5 6 5 5 3 5 4 0 2 2 1 0 1 0 1 1 2 4 5 5 5 6 6 6 6 6 6 6 6 6 6 5 5 6 5 5 5 6 6 5 5 4 4 4 3 3 3 3
7 8 8 5 5 5 4 4 2 4 4 2 2 1 0 1 1 2 3 4 5 5 5 5 5 6 6 6 6 6 5 5 5 5 5 5 5 5 5 5 5 5 5 4 4 4 4 4 4
Wind_Direction
306 283 266 262 243 229 238 240 257 262 289 7 13 2 352 347 21 99 119 83 96 119 128 140 138 138 140 137 133 132 129 131 129 125 123 125 124 123 120 114 108 106 104 100 97 92 90 86 82
300 296 270 242 239 229 234 223 235 260 27 31 21 358 334 20 63 95 89 82 97 114 125 137 140 143 146 142 139 141 137 134 131 129 129 128 124 120 117 113 106 103 100 100 99 95 93 92 87
282 278 257 236 238 238 248 349 37 58 46 46 16 351 315 29 66 82 81 84 95 109 126 135 138 146 148 148 146 145 140 135 134 133 133 128 120 118 115 112 109 105 100 98 101 99 99 97 93
285 247 247 249 249 256 275 349 22 14 24 28 49 298 67 55 66 79 84 82 98 111 121 135 142 147 150 151 150 149 147 141 140 136 132 129 125 121 116 112 109 106 101 95 98 102 99 102 100
253 257 233 236 246 260 287 335 9 325 317 325 294 269 38 79 82 81 83 89 102 110 113 141 148 149 154 157 155 154 154 145 142 136 130 129 129 125 119 115 111 106 102 100 98 102 102 101 101
258 246 240 242 244 244 251 304 296 288 288 302 305 270 196 100 88 85 77 84 105 116 112 141 154 152 155 161 162 159 152 146 141 137 133 126 125 127 125 122 119 115 113 109 104 98 108 108 105
282 263 252 269 276 276 278 358 287 287 276 289 310 289 178 94 84 72 60 61 79 115 122 136 155 154 154 159 163 160 155 148 145 141 136 130 123 122 122 121 118 117 119 117 107 102 100 112 111
308 291 254 257 263 274 336 1 340 305 286 311 309 274 220 95 81 70 51 34 33 117 131 136 154 153 151 159 161 159 156 148 146 143 137 129 123 119 120 122 121 117 114 116 112 110 111 108 119
278 253 247 259 281 313 356 322 308 319 283 274 269 274 309 86 72 54 41 350 301 190 144 146 151 152 151 158 160 151 150 147 144 140 140 137 137 128 121 118 128 129 126 124 130 132 137 135 144
231 241 252 300 321 323 322 304 303 274 263 258 249 239 211 196 200 214 233 232 229 229 191 160 160 154 147 157 155 158 153 151 153 148 153 159 147 133 120 119 125 136 136 137 152 159 164 166 171
237 248 276 296 316 316 297 284 270 259 257 252 248 241 217 240 241 224 223 229 227 218 213 168 164 150 144 132 146 155 157 163 162 158 168 149 124 122 124 126 133 146 157 162 170 186 192 160 147
242 257 268 273 292 284 277 275 267 253 255 265 273 267 257 252 246 237 225 224 223 214 215 204 163 156 146 130 131 145 148 158 157 164 172 151 130 135 145 147 158 164 172 168 182 188 160 141 139
242 254 261 264 266 260 264 262 265 262 260 257 249 244 239 242 245 237 228 220 209 205 206 215 176 161 151 141 156 149 143 144 146 156 169 144 129 138 135 134 139 148 148 171 175 146 125 108 95
273 276 272 264 259 256 257 262 253 252 243 240 235 234 230 226 233 232 226 224 213 203 201 198 187 171 155 156 163 151 133 134 135 135 143 139 135 128 128 117 122 124 135 172 169 132 126 115 93
272 270 265 244 238 236 257 266 239 242 237 241 235 230 225 223 224 225 220 216 215 206 193 189 183 168 161 157 157 137 139 134 128 134 137 125 121 123 119 123 122 123 132 141 106 103 103 104 95
249 252 254 225 212 203 214 264 249 231 228 241 237 227 222 224 219 218 215 214 205 196 183 181 181 164 161 155 141 131 139 129 132 134 133 127 124 127 118 119 123 121 117 101 97 112 108 103 100
226 248 257 247 207 212 224 264 270 250 250 250 239 225 220 221 215 208 203 202 191 187 176 166 166 161 155 143 134 132 133 136 134 132 130 133 133 134 119 116 119 120 102 84 126 106 124 123 99
257 264 269 267 220 247 257 266 272 258 253 252 237 226 215 214 214 203 194 194 186 177 171 164 164 162 146 138 136 126 126 142 139 133 133 136 140 138 126 113 114 115 105 102 110 118 109 121 124
273 276 276 278 283 276 269 273 274 264 254 249 235 227 211 209 203 195 186 182 177 169 166 165 160 161 151 153 161 160 158 148 148 144 141 139 138 138 132 128 119 113 128 135 120 108 117 117 115
259 264 272 283 277 282 277 277 274 256 244 238 227 218 208 203 196 191 184 174 171 170 167 165 161 166 165 167 170 165 153 141 146 148 145 143 141 139 140 134 140 132 133 121 110 106 118 149 144
254 254 269 284 300 271 280 284 262 243 238 233 222 209 202 200 192 188 183 176 170 171 167 171 165 163 165 160 151 138 117 112 139 152 150 142 136 130 125 130 133 149 150 151 142 135 127 156 206
260 257 268 279 294 283 279 292 280 251 239 236 223 210 202 198 190 183 181 181 175 170 163 166 160 159 166 168 165 157 160 158 172 167 155 152 141 136 133 129 128 138 140 146 156 139 148 156 186
250 282 269 268 271 277 250 245 275 236 240 236 222 205 193 189 182 179 181 179 169 159 158 164 160 163 169 176 178 171 165 155 145 144 148 153 151 141 141 136 130 139 145 151 155 152 164 177 188
257 263 261 250 248 259 231 218 270 228 242 240 229 206 186 183 181 177 171 163 163 158 160 165 164 168 173 178 185 182 169 156 150 155 162 158 158 153 147 140 139 143 150 162 171 178 184 200 204
223 228 285 258 223 242 209 216 249 237 227 225 229 208 188 185 185 176 167 165 164 164 168 169 168 170 174 178 187 189 176 167 167 168 171 165 169 174 177 163 159 160 167 167 164 170 190 193 191
215 213 208 237 253 279 249 232 238 185 112 151 211 178 174 183 186 179 172 170 170 171 170 169 172 175 176 181 191 186 176 173 177 176 174 176 181 183 176 165 164 163 166 169 164 172 192 186 192
212 216 232 265 285 278 252 243 242 141 83 49 132 146 174 176 179 178 172 174 173 174 178 177 179 178 181 184 187 186 182 181 179 177 174 176 175 173 166 167 170 175 171 169 165 181 194 187 205
249 231 178 206 244 259 258 242 245 221 226 187 166 200 181 167 176 179 173 169 173 172 171 174 178 179 180 178 184 188 183 184 179 175 177 175 168 165 165 169 172 181 179 178 176 179 187 187 203
197 216 212 221 228 237 271 262 111 122 128 159 161 77 105 144 177 171 163 160 159 158 159 165 173 173 172 173 175 178 179 180 177 173 176 171 160 162 168 172 176 180 184 183 182 191 189 197 202
209 209 199 205 230 222 251 269 27 94 94 80 44 22 80 134 148 156 153 155 157 156 158 165 172 172 172 171 170 171 171 172 173 173 174 163 160 168 172 174 178 180 186 185 185 197 202 205 207
Height
1501 1502 1504 1507 1508 1508 1505 1496 1489 1488 1488 1490 1491 1492 1493 1496 1499 1509 1509 1506 1506 1506 1507 1509 1510 1512 1513 1515 1516 1518 1519 1520 1522 1523 1524 1525 1526 1527 1528 1529 1530 1531 1531 1532 1533 1534 1535 1535 1536
1501 1503 1506 1506 1507 1509 1502 1492 1490 1489 1490 1492 1493 1494 1496 1498 1500 1504 1505 1506 1506 1506 1507 1508 1509 1511 1513 1514 1516 1517 1519 1520 1521 1523 1524 1525 1526 1527 1528 1529 1530 1531 1531 1532 1533 1534 1535 1535 1536
1502 1504 1506 1504 1503 1502 1496 1489 1489 1490 1491 1493 1495 1497 1498 1500 1502 1503 1505 1506 1506 1506 1507 1508 1509 1510 1512 1514 1515 1516 1518 1520 1521 1522 1523 1524 1525 1526 1528 1528 1529 1530 1531 1532 1533 1534 1534 1535 1536
1504 1505 1505 1505 1502 1494 1491 1490 1491 1492 1493 1494 1496 1498 1500 1502 1502 1503 1504 1505 1506 1506 1507 1507 1509 1510 1511 1513 1514 1516 1517 1519 1520 1522 1523 1524 1525 1526 1527 1528 1529 1530 1531 1532 1533 1534 1534 1535 1536
1504 1504 1504 1504 1500 1493 1490 1491 1493 1493 1495 1496 1497 1498 1500 1502 1502 1503 1503 1504 1505 1505 1506 1507 1508 1509 1510 1512 1513 1515 1517 1518 1519 1521 1522 1523 1524 1526 1527 1528 1529 1529 1530 1531 1532 1533 1534 1535 1536
1504 1502 1505 1504 1497 1491 1491 1492 1494 1495 1496 1497 1498 1499 1500 1501 1501 1502 1503 1504 1505 1505 1505 1506 1507 1508 1509 1511 1512 1514 1516 1517 1518 1520 1521 1522 1524 1525 1526 1527 1528 1529 1530 1531 1532 1533 1533 1534 1535
1505 1502 1502 1498 1496 1493 1491 1492 1494 1496 1496 1498 1499 1499 1499 1500 1500 1500 1502 1503 1504 1504 1504 1505 1506 1507 1508 1510 1511 1513 1515 1516 1518 1519 1520 1522 1523 1524 1525 1526 1527 1528 1529 1530 1531 1532 1533 1534 1535
1503 1503 1500 1497 1496 1494 1493 1494 1495 1496 1497 1498 1499 1498 1498 1500 1499 1499 1501 1501 1502 1503 1503 1503 1505 1506 1507 1508 1510 1512 1513 1515 1516 1518 1519 1521 1522 1523 1524 1525 1526 1527 1528 1529 1530 1532 1533 1533 1534
1503 1506 1502 1496 1495 1494 1494 1495 1495 1496 1497 1497 1497 1497 1498 1498 1497 1498 1499 1500 1500 1501 1501 1501 1503 1504 1505 1507 1508 1510 1512 1513 1515 1517 1518 1520 1521 1522 1523 1524 1525 1526 1527 1529 1530 1531 1532 1533 1534
1503 1504 1497 1494 1494 1494 1494 1495 1496 1495 1495 1495 1495 1495 1496 1496 1496 1496 1497 1498 1498 1499 1500 1500 1501 1502 1504 1505 1506 1508 1510 1512 1514 1515 1517 1518 1519 1521 1522 1523 1524 1525 1527 1528 1529 1530 1531 1532 1533
1499 1498 1495 1494 1494 1494 1495 1495 1494 1494 1493 1492 1492 1493 1493 1494 1494 1494 1495 1496 1496 1497 1497 1498 1499 1500 1502 1503 1505 1506 1508 1510 1512 1514 1516 1517 1518 1519 1520 1522 1523 1524 1526 1527 1528 1529 1530 1531 1532
1498 1495 1494 1494 1494 1494 1494 1493 1492 1491 1489 1489 1489 1490 1491 1491 1491 1492 1492 1493 1494 1494 1495 1496 1497 1498 1500 1501 1503 1505 1506 1508 1510 1512 1514 1516 1516 1518 1519 1520 1522 1523 1524 1526 1527 1528 1529 1530 1531
1495 1493 1493 1492 1492 1492 1492 1491 1490 1486 1486 1486 1486 1487 1487 1488 1488 1489 1489 1490 1490 1491 1492 1493 1494 1496 1497 1499 1500 1503 1504 1506 1508 1510 1512 1514 1515 1516 1517 1519 1521 1522 1523 1525 1526 1527 1528 1529 1530
1493 1491 1490 1489 1489 1489 1488 1486 1486 1480 1482 1482 1482 1483 1483 1484 1485 1485 1486 1486 1487 1487 1489 1490 1491 1493 1495 1496 1498 1500 1502 1504 1506 1508 1510 1512 1513 1515 1516 1517 1519 1521 1522 1523 1525 1526 1527 1528 1529
1492 1491 1488 1485 1485 1485 1486 1482 1478 1476 1478 1478 1478 1479 1479 1480 1481 1481 1482 1483 1483 1484 1485 1487 1488 1490 1492 1494 1495 1498 1500 1503 1504 1506 1508 1510 1512 1513 1514 1516 1517 1519 1520 1522 1523 1524 1525 1527 1528
1491 1489 1488 1480 1479 1480 1486 1481 1472 1472 1473 1473 1474 1474 1475 1475 1476 1477 1478 1478 1479 1480 1482 1483 1485 1487 1489 1491 1492 1495 1498 1500 1502 1504 1506 1508 1510 1511 1513 1514 1515 1517 1518 1520 1521 1522 1523 1525 1526
1488 1487 1482 1478 1476 1476 1479 1475 1469 1469 1469 1468 1469 1469 1470 1471 1472 1473 1473 1474 1475 1477 1478 1480 1482 1484 1486 1488 1490 1493 1495 1498 1499 1502 1504 1506 1507 1509 1511 1512 1513 1515 1516 1517 1519 1520 1521 1522 1524
1486 1483 1478 1476 1473 1474 1474 1470 1465 1465 1465 1463 1463 1464 1465 1466 1467 1468 1469 1470 1471 1473 1475 1476 1478 1480 1483 1486 1488 1490 1492 1495 1497 1499 1501 1503 1505 1507 1508 1510 1511 1512 1513 1515 1516 1518 1519 1520 1522
1480 1480 1478 1472 1470 1472 1470 1466 1461 1459 1459 1459 1459 1459 1460 1462 1463 1465 1466 1466 1468 1469 1471 1473 1475 1477 1480 1482 1484 1486 1489 1492 1494 1496 1498 1500 1502 1504 1506 1507 1508 1510 1511 1512 1514 1515 1517 1518 1519
1479 1479 1476 1470 1468 1469 1467 1462 1456 1453 1453 1453 1453 1454 1456 1457 1459 1461 1462 1463 1464 1466 1467 1469 1471 1474 1476 1479 1482 1484 1486 1489 1491 1492 1495 1497 1499 1501 1502 1504 1505 1507 1508 1510 1511 1513 1514 1515 1517
1475 1476 1474 1473 1469 1466 1466 1461 1452 1447 1447 1447 1448 1449 1451 1453 1455 1457 1458 1459 1461 1462 1464 1466 1468 1471 1473 1476 1479 1482 1484 1486 1488 1489 1491 1494 1496 1498 1500 1501 1503 1505 1506 1507 1508 1510 1511 1512 1515
1474 1469 1471 1471 1474 1474 1469 1472 1452 1445 1445 1444 1445 1446 1447 1449 1451 1452 1454 1456 1457 1459 1461 1463 1465 1468 1471 1473 1475 1477 1479 1481 1484 1486 1488 1491 1494 1495 1497 1499 1501 1502 1503 1505 1506 1507 1509 1510 1512
1469 1469 1470 1470 1472 1474 1467 1471 1457 1444 1444 1442 1441 1442 1443 1446 1448 1449 1451 1452 1454 1456 1458 1461 1462 1465 1468 1470 1472 1475 1476 1478 1481 1483 1486 1489 1491 1493 1494 1495 1497 1499 1501 1502 1503 1505 1506 1508 1509
1466 1469 1468 1468 1472 1476 1461 1464 1455 1445 1440 1438 1438 1439 1440 1442 1444 1446 1448 1450 1452 1454 1456 1458 1460 1462 1465 1468 1469 1471 1473 1475 1477 1480 1483 1485 1488 1490 1491 1492 1494 1496 1498 1499 1501 1502 1503 1505 1507
1467 1472 1477 1474 1474 1466 1451 1455 1450 1437 1434 1434 1435 1436 1437 1439 1441 1443 1445 1447 1448 1451 1453 1455 1457 1460 1462 1465 1467 1469 1471 1473 1474 1476 1479 1481 1484 1486 1488 1490 1491 1494 1495 1497 1498 1499 1501 1502 1503
1463 1465 1474 1475 1467 1458 1450 1452 1441 1432 1431 1432 1432 1433 1435 1437 1438 1440 1442 1444 1445 1447 1450 1452 1454 1456 1459 1462 1464 1466 1468 1470 1472 1474 1476 1478 1481 1483 1485 1487 1488 1491 1493 1494 1495 1496 1498 1499 1500
1459 1462 1459 1466 1464 1465 1452 1439 1433 1430 1430 1431 1431 1432 1433 1434 1436 1437 1439 1441 1443 1445 1447 1449 1451 1453 1456 1459 1461 1463 1465 1467 1469 1471 1473 1475 1478 1480 1482 1483 1485 1488 1489 1491 1492 1493 1494 1495 1497
1456 1455 1462 1467 1468 1463 1447 1440 1439 1433 1431 1430 1431 1431 1432 1433 1434 1435 1437 1438 1440 1442 1444 1446 1448 1451 1453 1456 1458 1460 1462 1464 1466 1468 1470 1472 1474 1476 1478 1480 1482 1484 1486 1488 1489 1490 1491 1492 1493
1456 1457 1456 1458 1457 1460 1455 1445 1428 1428 1428 1429 1430 1430 1431 1432 1432 1433 1434 1435 1437 1439 1441 1443 1446 1448 1450 1452 1455 1457 1459 1461 1463 1464 1467 1468 1470 1473 1475 1477 1479 1481 1483 1484 1485 1486 1487 1488 1489
1446 1448 1452 1460 1455 1451 1453 1447 1427 1427 1427 1428 1429 1430 1430 1431 1432 1432 1433 1433 1435 1437 1439 1441 1443 1445 1446 1449 1451 1453 1455 1457 1459 1461 1463 1465 1467 1469 1471 1473 1475 1477 1479 1481 1481 1482 1483 1484 1484